Regional Weather Roundup
Issued by NWS

Home | Current Version | Previous Version | Text Only | Print | Product List | Glossary Off
Versions: 1 2 3 4 5 6 7 8 9 10 11 12 13 14 15 16 17 18 19 20 21 22 23 24 25 26 27 28 29 30 31 32 33 34 35 36 37 38 39 40 41 42 43 44 45 46 47 48 49 50

550
ASUS43 KFSD 190410
RWRSD

WEATHER ROUNDUP FOR SOUTH DAKOTA
NATIONAL WEATHER SERVICE SIOUX FALLS SD
1100 PM CDT FRI AUG 18 2017

NOTE: "FAIR" INDICATES FEW OR NO CLOUDS BELOW 12,000 FEET WITH NO
SIGNIFICANT WEATHER AND/OR OBSTRUCTIONS TO VISIBILITY.


SDZ001>005-009-010-012>017-190500-
NORTHWEST AND NORTH CENTRAL SOUTH DAKOTA

CITY           SKY/WX    TMP DP  RH WIND       PRES   REMARKS
BUFFALO          N/A     70  45  40 SE14      29.88R
FAITH            N/A     68  52  56 SE15      29.95S
MOBRIDGE       FAIR      65  57  75 E7        29.91F
$$

SDZ012>016-024>037-041>051-057-063-072>074-190500-
SOUTHWEST AND SOUTH CENTRAL SOUTH DAKOTA

CITY           SKY/WX    TMP DP  RH WIND       PRES   REMARKS
RAPID CTY ARPT FAIR      65  46  50 CALM      29.99R
PIERRE         FAIR      66  54  65 S8        29.94S
CUSTER         FAIR      62  40  44 CALM      30.14S
ELLSWORTH AFB  FAIR      69  48  46 SW6       29.98S
PHILIP         FAIR      66  52  60 E8        29.96S
PINE RIDGE     FAIR      62  53  72 E6        30.01S
SPEARFISH      FAIR      70  43  37 S6        30.00F
WINNER         FAIR      67  60  78 SE8       29.99S
$$

SDZ004>011-016>023-039-040-190500-
NORTHEAST SOUTH DAKOTA

CITY           SKY/WX    TMP DP  RH WIND       PRES   REMARKS
ABERDEEN       FAIR      60  58  92 CALM      29.95R
WATERTOWN      FAIR      59  58  96 CALM      29.96S
BROOKINGS      FAIR      60  58  92 NW5       29.97R
SISSETON         N/A     60  58  92 S5        29.92S
$$

SDZ017-020-022-023-036>040-048>070-190500-
SOUTHEAST SOUTH DAKOTA

CITY           SKY/WX    TMP DP  RH WIND       PRES   REMARKS
SIOUX FALLS    FAIR      64  61  90 NW8       29.96S
HURON          FAIR      63  59  87 S3        29.96S
CHAMBERLAIN    FAIR      62  61  97 SE3       29.98R
MITCHELL       FAIR      66  59  78 CALM      29.98S
YANKTON        FAIR      65  59  81 N9        29.97S
$$

ABBREVIATIONS USED IN REMARKS
   TC - TEMPERATURE IN CELSIUS
  WCI - WIND CHILL INDEX
   HX - HEAT INDEX
  VSB - VISIBILITY





USA.gov is the U.S. government's official web portal to all federal, state and local government web resources and services.